Location: *
(46.1006°N, 1.8394°E)
Time: 20:56:37
(UTC+00:00)

Cosmos 1805 - Pass Details

Date: 20 September 2019
Orbit: 525 x 532 km, 82.5° (Epoch: 21 October)

Event Time Altitude Azimuth Distance (km) Brightness Sun altitude
Exits shadow 19:31:00 27° 65° (ENE) 1,030 4.3 -17.1°
Drops below altitude 10° 19:33:34 10° 29° (NNE) 1,782 5.8 -17.5°
Sets 19:35:53 0° 19° (NNE) 2,676 6.9 -17.9°
